Flag for Portugal Weather past 2 weeks in Braga, Portugal

Now
56 °F

Cool.


Feels Like: 56 °F
Forecast: 53 / 85 °F
Wind: 2 mph from Southwest

Location: Porto / Pedras Rubras

Current Time: Jun 3, 2015 at 10:43:11 AM

Latest Report: Jun 3, 2015 at 10:00 AM


Visibility: N/A

Pressure: 30.16 "Hg

Humidity: 94%

Dew point: 54 °F

Location of BragaLocation

Historic Weather in Braga — Graph

°F

Braga temperature yesterday

Maximum temperature yesterday: 67 °F (at 3:00 PM)
Minimum temperature yesterday: 51 °F (at 6:00 AM)
Average temperature yesterday: 60 °F

Past Weeks' High & Low Weather Summary

 TemperatureHumidityPressure
High82 °F (May 28, 3:00 PM)94% (Jun 1, 7:00 AM)30.35 "Hg (Jun 1, 7:00 AM)
Low47 °F (May 20, 5:00 AM)25% (May 27, 12:00 PM)29.91 "Hg (May 29, 5:00 AM)
Average65 °F57%30.11 "Hg
* Reported May 19 9:00 AM — Jun 3 9:00 AM, Braga, Weather by CustomWeather, © 2015

Note: Actual official high and low records may vary slightly from our data, if they occured in-between our weather recording intervals... More about our weather records

Advertising

Braga weather history for previous 24 hours

 ConditionsComfort  
Time TempWeatherWind HumidityBarometerVisibility
9:00 AM
Wed, Jun 3
56 °FCool.1 mph93%30.15 "HgN/A
8:00 AM56 °FCool.No wind94%30.15 "HgN/A
7:00 AM54 °FCool.1 mph93%30.14 "HgN/A
6:00 AM54 °FCool.2 mph92%30.14 "HgN/A
5:00 AM53 °FCool.1 mph93%30.13 "HgN/A
4:00 AM54 °FCool.No wind92%30.13 "HgN/A
3:00 AM54 °FCool.1 mph89%30.14 "HgN/A
2:00 AM56 °FCool.1 mph89%30.14 "HgN/A
1:00 AM57 °FCool.3 mph87%30.15 "HgN/A
12:00 AM58 °FCool.6 mph86%30.14 "HgN/A
11:00 PM
Tue, Jun 2
58 °FCool.6 mph85%30.14 "HgN/A
9:00 PM60 °FCool.6 mph77%30.12 "HgN/A
8:00 PM63 °FMild.7 mph73%30.13 "HgN/A
7:00 PM64 °FMild.8 mph67%30.12 "HgN/A
6:00 PM65 °FMild.10 mph63%30.13 "HgN/A
5:00 PM66 °FMild.10 mph61%30.13 "HgN/A
4:00 PM67 °FMild.10 mph59%30.14 "HgN/A
3:00 PM67 °FMild.10 mph58%30.14 "HgN/A
2:00 PM66 °FMild.9 mph58%30.15 "HgN/A
1:00 PM65 °FMild.8 mph58%30.15 "HgN/A
12:00 PM64 °FMild.6 mph62%30.15 "HgN/A
11:00 AM63 °FMild.6 mph65%30.16 "HgN/A
10:00 AM63 °FMild.3 mph64%30.16 "HgN/A
Weather by CustomWeather, © 2015

See weather overviewHow to use our weather pages